Погода в Арасатубе

Бразилия     21°12′39″S   50°26′00″W
темп.,
°C
ветер,
м/с
пор.,
м/с
влажн.,
%
обл.,
%
осадки,
мм/ч
давл.,
гПа
погр.,
м
27 января, ср
ср2700:00+24всв3573100 0.0 1011108
03:00+22св2385100 0.4 101048
06:00+21с2493100 1.9 1011141
09:00+26ссв477799 1.9 1012484
12:00+25с4677100 0.0 1011377
15:00+31сз5654100 0.2 10081336
18:00+29сз246697 0.4 1007612
21:00+24юз118298 3.1 100924
28 января, чт
чт2800:00+23св1186100 2.1 101127
03:00+22св2392100 5.1 100993
06:00+22с2293100 0.0 100977
09:00+24ссв3687100 0.0 1012308
12:00+24ссв3686100 0.0 1010379
15:00+28ссз2571100 2.8 1008492
18:00+25с1282100 1.7 100750
21:00+24ююз1283100 1.9 100924
29 января, пт
пт2900:00+23вюв1188100 2.3 101023
03:00+22в2390100 2.8 100936
06:00+22ююз0194100 2.1 101023
09:00+24ссв2385100 2.2 1012224
12:00+27сз2570100 0.0 1011722
15:00+29ссз356782 6.1 10091076
18:00+27зсз257898 2.0 1008268
21:00+24ююз228299 2.1 101024
30 января, сб
сб3000:00+23юв2289100 1.7 101127
03:00+22в2389100 1.7 101027
06:00+21всв2389100 0.0 101138
09:00+26св237788 0.1 1013276
12:00+31ссв465118 0.1 10121723
15:00+33с454615 0.1 10092231
18:00+31зсз225456 0.0 100827
21:00+26юв235766 0.0 101026
31 января, вс
вс3100:00+25юв226840 0.0 101124
03:00+24всв336868 0.0 101073
06:00+23всв3570100 0.0 1011105
09:00+27св3466100 0.0 1013322
12:00+32ссз455074 0.0 10121437
15:00+32сз454875 0.0 10092035
18:00+31сз225585 0.0 100860
21:00+26ююз236567 0.0 101024